This demonstration page uses our WeatherBlox Daily Observations layout. Learn more.

Left ArrowRight Arrow

36.17497, -115.13722

Hourly Observations for July 12, 2017

Temp ( °F °C ) Dew Point ( °F °C ) Humidity (%) Winds ( mph kmh ) Pressure ( in mb ) Visibility ( mi km ) Precip ( " mm )
12:53 am 00:53 Clear 90 32.2 49 9.4 24 24 NNE 5 7 29.79 1009 10 16 N/A
1:53 am 01:53 Clear 87 30.6 47 8.3 25 25 N N/A 29.79 1009 10 16 N/A
2:53 am 02:53 Clear 86 30 48 8.9 27 27 NNW 6 9 29.79 1009 10 16 N/A
3:53 am 03:53 Clear 87 30.6 47 8.3 25 25 N N/A 29.79 1009 10 16 N/A
4:53 am 04:53 Clear 84 28.9 49 9.4 30 30 N 3 6 29.81 1010 10 16 N/A
5:53 am 05:53 Sunny 82 27.8 52 11.1 35 35 N N/A 29.83 1010 10 16 N/A
6:53 am 06:53 Sunny 85 29.4 51 10.6 31 31 N 3 6 29.85 1011 10 16 N/A
7:53 am 07:53 Sunny 88 31.1 50 10 27 27 N N/A 29.87 1012 10 16 N/A
8:53 am 08:53 Sunny 91 32.8 49 9.4 24 24 N N/A 29.88 1012 10 16 N/A
9:53 am 09:53 Sunny 94 34.4 49 9.4 21 21 SE 9 15 29.88 1012 10 16 N/A
10:53 am 10:53 Sunny 97 36.1 48 8.9 19 19 ESE 9 15 29.88 1012 10 16 N/A
11:53 am 11:53 Sunny 100 37.8 48 8.9 17 17 VRB 6 9 29.87 1012 10 16 N/A
12:53 pm 12:53 Sunny 101 38.3 49 9.4 17 17 E 3 6 29.85 1011 10 16 N/A
1:53 pm 13:53 Sunny 102 38.9 45 7.2 14 14 S 12 19 29.82 1010 10 16 N/A
2:53 pm 14:53 Sunny 104 40 44 6.7 13 13 VRB 3 6 29.80 1009 10 16 N/A
3:39 pm 15:39 Sunny with Nearby Thunderstorms 104 40 47 8.3 15 15 SE 21 33 29.59 1002 10 16 N/A
3:53 pm 15:53 Sunny with Nearby Thunderstorms 105 40.6 47 8.3 14 14 SSE 15 24 29.78 1008 10 16 N/A
4:06 pm 16:06 Sunny 104 40 47 8.3 15 15 SSE 13 20 29.59 1002 10 16 N/A
4:18 pm 16:18 Sunny with Thunderstorms 104 40 46 7.8 14 14 ESE 9 15 29.59 1002 10 16 N/A
4:33 pm 16:33 Sunny 104 40 46 7.8 14 14 ESE 10 17 29.56 1001 10 16 N/A
4:53 pm 16:53 Sunny 105 40.6 46 7.8 14 14 SSE 14 22 29.76 1008 10 16 N/A
5:53 pm 17:53 Sunny 103 39.4 45 7.2 14 14 SE 5 7 29.75 1008 10 16 N/A
6:53 pm 18:53 Sunny 103 39.4 45 7.2 14 14 SSE 5 7 29.75 1007 10 16 N/A
7:53 pm 19:53 Sunny 103 39.4 41 5 12 12 WNW 8 13 29.76 1008 10 16 N/A
8:15 pm 20:15 Clear 100 37.8 46 7.8 16 16 NNW 13 20 29.62 1003 10 16 N/A
8:53 pm 20:53 Clear 98 36.7 45 7.2 16 16 NNW 7 11 29.79 1009 10 16 N/A
9:53 pm 21:53 Clear 97 36.1 44 6.7 16 16 NE 9 15 29.83 1010 10 16 N/A
10:53 pm 22:53 Clear 95 35 44 6.7 17 17 ENE 17 28 29.84 1011 10 16 N/A
11:53 pm 23:53 Clear 93 33.9 46 7.8 20 20 NE 7 11 29.85 1011 10 16 N/A

Powered by AerisWeather